User: anonymous   Login
Location: Le Rocchette
(44.3500°N, 7.8333°E)
Time: 15:38:13
(UTC+00:00)
Language:

COSMOS 2487 - Orbit

View from above orbital plane
View from above orbital plane
View from above satellite
View from above satellite

Ground track
Ground track

The orbit data is extracted from the following two-line orbital elements,

1 39194U 13032A   20017.44698953  .00002373  00000-0  60124-4 0  9995
2 39194  74.7116 359.0703 0004554 266.6999  93.3692 15.40304093366664
Epoch (UTC): 17 January 2020 10:43:39
Eccentricity: 0.0004554
inclination: 74.7116°
perigee height: 442 km
apogee height: 448 km
right ascension of ascending node: 359.0703°
argument of perigee: 266.6999°
revolutions per day: 15.40304093
mean anomaly at epoch: 93.3692°
orbit number at epoch: 36666

The dashed part of the orbit path shows where the satellite is in the earth's shadow,  

DLR